Overview Statistics Trail Chart Weather Telemetry Raw packets
 

This is the latest recevied weather packets stored in our database for station/object N7ZEF. If no packets are shown the sender has not sent any weather packets the latest 10 day(s).

<< 31 32 33 34 35 36 37 >>
Time Temp. Humidity Pressure Rain* Wind** Luminosity Snow
1777699516 3.89° C 55% 1024.5 hPa 0 mm - - -
1777698915 3.89° C 55% 1024.4 hPa 0 mm - - -
1777698314 3.89° C 52% 1024.4 hPa 0 mm - - -
1777697712 3.89° C 52% 1024.4 hPa 0 mm - - -
1777697111 3.89° C 51% 1024.4 hPa 0 mm - - -
1777696509 4.44° C 51% 1024.3 hPa 0 mm - - -
1777695908 5° C 49% 1024.3 hPa 0 mm - - -
1777695307 5° C 46% 1024.3 hPa 0 mm - - -
1777694705 5.56° C 45% 1024.1 hPa 0 mm - - -
1777694104 6.67° C 44% 1024.1 hPa 0 mm - - -
1777693503 7.22° C 41% 1023.9 hPa 0 mm - - -
1777692901 7.78° C 40% 1023.7 hPa 0 mm - - -
1777692300 8.33° C 40% 1023.6 hPa 0 mm - - -
1777691698 8.89° C 39% 1023.5 hPa 0 mm - - -
1777691097 8.89° C 36% 1023.4 hPa 0 mm - - -
1777690496 10° C 35% 1023.2 hPa 0 mm - - -
1777689894 10° C 34% 1023.1 hPa 0 mm - - -
1777689293 10° C 32% 1023 hPa 0 mm - - -
1777688692 10.56° C 32% 1022.9 hPa 0 mm - - -
1777688090 10.56° C 31% 1022.7 hPa 0 mm - - -
1777687489 11.11° C 29% 1022.6 hPa 0 mm - - -
1777686887 11.11° C 28% 1022.6 hPa 0 mm - - -
1777686286 11.67° C 27% 1022.6 hPa 0 mm - - -
1777685685 11.67° C 27% 1022.5 hPa 0 mm - - -
1777685083 12.22° C 25% 1022.3 hPa 0 mm - - -

* Rain latest hour (hover to see other rain measurements)
** Current wind speed in m/s (hover to see current wind gust speed)